Time,TemperatureF,DewpointF,PressureIn,WindDirection,WindDirectionDegrees,WindSpeedMPH,WindSpeedGustMPH,Humidity,HourlyPrecipIn,Conditions,Clouds,dailyrainin,SoftwareType,DateUTC
2013-08-25 00:01:00,52.9,47.9,30.24,ESE,106,0.0,0.0,83,0.00,,,0.00,Wunderground v.1.12,2013-08-25 04:01:00,
2013-08-25 00:03:00,52.9,47.9,30.24,ESE,106,0.0,0.0,83,0.00,,,0.00,Wunderground v.1.12,2013-08-25 04:03:00,
2013-08-25 00:05:00,52.9,47.9,30.24,ESE,106,0.0,0.0,83,0.00,,,0.00,Wunderground v.1.12,2013-08-25 04:05:00,
2013-08-25 00:06:00,52.9,47.9,30.24,ESE,106,0.0,0.0,83,0.00,,,0.00,Wunderground v.1.12,2013-08-25 04:06:00,
2013-08-25 00:08:00,52.9,48.5,30.25,N/A,-737280,0.0,0.0,85,0.00,,,0.00,Wunderground v.1.12,2013-08-25 04:08:00,
2013-08-25 00:13:00,52.9,47.9,30.24,ESE,106,0.0,0.0,83,0.00,,,0.00,Wunderground v.1.12,2013-08-25 04:13:00,
2013-08-25 00:19:00,52.9,47.9,30.24,ESE,106,0.0,0.0,83,0.00,,,0.00,Wunderground v.1.12,2013-08-25 04:19:00,
2013-08-25 00:25:00,52.9,48.2,30.24,ESE,106,0.0,0.0,84,0.00,,,0.00,Wunderground v.1.12,2013-08-25 04:25:00,
2013-08-25 00:31:00,52.8,48.1,30.24,ESE,106,0.0,0.0,84,0.00,,,0.00,Wunderground v.1.12,2013-08-25 04:31:00,
2013-08-25 00:36:00,52.8,48.1,30.24,ESE,106,0.0,0.0,84,0.00,,,0.00,Wunderground v.1.12,2013-08-25 04:36:00,
2013-08-25 00:43:00,52.6,47.9,30.24,ESE,106,0.0,0.0,84,0.00,,,0.00,Wunderground v.1.12,2013-08-25 04:43:00,
2013-08-25 00:48:00,52.6,47.9,30.24,ESE,106,0.0,0.0,84,0.00,,,0.00,Wunderground v.1.12,2013-08-25 04:48:00,
2013-08-25 00:54:00,52.8,48.4,30.24,ESE,106,0.0,0.0,85,0.00,,,0.00,Wunderground v.1.12,2013-08-25 04:54:00,
2013-08-25 01:00:00,52.6,48.2,30.24,ESE,106,0.0,0.0,85,0.00,,,0.00,Wunderground v.1.12,2013-08-25 05:00:00,
2013-08-25 01:05:00,52.6,47.9,30.24,ESE,106,0.0,0.0,84,0.00,,,0.00,Wunderground v.1.12,2013-08-25 05:05:00,
2013-08-25 01:10:00,52.8,48.1,30.24,ESE,106,0.0,0.0,84,0.00,,,0.00,Wunderground v.1.12,2013-08-25 05:10:00,
2013-08-25 01:16:00,52.6,48.2,30.24,ESE,106,0.0,0.0,85,0.00,,,0.00,Wunderground v.1.12,2013-08-25 05:16:00,
2013-08-25 01:23:00,52.5,48.4,30.24,ESE,106,0.0,0.0,86,0.00,,,0.00,Wunderground v.1.12,2013-08-25 05:23:00,
2013-08-25 01:28:00,52.3,48.2,30.24,ESE,106,0.0,0.0,86,0.00,,,0.00,Wunderground v.1.12,2013-08-25 05:28:00,
2013-08-25 01:33:00,52.3,48.2,30.23,ESE,106,0.0,0.0,86,0.00,,,0.00,Wunderground v.1.12,2013-08-25 05:33:00,
2013-08-25 01:38:00,52.5,48.4,30.23,ESE,106,0.0,0.0,86,0.00,,,0.00,Wunderground v.1.12,2013-08-25 05:38:00,
2013-08-25 01:43:00,52.6,48.5,30.23,ESE,106,0.0,0.0,86,0.00,,,0.00,Wunderground v.1.12,2013-08-25 05:43:00,
2013-08-25 01:49:00,52.6,48.8,30.23,ESE,106,0.0,0.0,87,0.00,,,0.00,Wunderground v.1.12,2013-08-25 05:49:00,
2013-08-25 01:55:00,52.8,49.0,30.23,ESE,106,0.0,0.0,87,0.00,,,0.00,Wunderground v.1.12,2013-08-25 05:55:00,
2013-08-25 02:01:00,52.8,49.0,30.23,ESE,106,0.0,0.0,87,0.00,,,0.00,Wunderground v.1.12,2013-08-25 06:01:00,
2013-08-25 02:07:00,52.8,49.0,30.22,ESE,106,0.0,0.0,87,0.00,,,0.00,Wunderground v.1.12,2013-08-25 06:07:00,
2013-08-25 02:13:00,52.8,49.3,30.22,ESE,106,0.0,0.0,88,0.00,,,0.00,Wunderground v.1.12,2013-08-25 06:13:00,
2013-08-25 02:18:00,52.6,49.1,30.22,ESE,106,0.0,0.0,88,0.00,,,0.00,Wunderground v.1.12,2013-08-25 06:18:00,
2013-08-25 02:23:00,52.6,49.1,30.22,ESE,106,0.0,0.0,88,0.00,,,0.00,Wunderground v.1.12,2013-08-25 06:23:00,
2013-08-25 02:28:00,52.5,49.4,30.22,ESE,106,0.0,0.0,89,0.00,,,0.00,Wunderground v.1.12,2013-08-25 06:28:00,
2013-08-25 02:33:00,52.5,49.4,30.22,ESE,106,0.0,0.0,89,0.00,,,0.00,Wunderground v.1.12,2013-08-25 06:33:00,
2013-08-25 02:39:00,52.5,49.4,30.22,ESE,106,0.0,0.0,89,0.00,,,0.00,Wunderground v.1.12,2013-08-25 06:39:00,
2013-08-25 02:45:00,52.3,49.2,30.22,ESE,106,0.0,0.0,89,0.00,,,0.00,Wunderground v.1.12,2013-08-25 06:45:00,
2013-08-25 02:51:00,52.2,49.4,30.22,ESE,106,0.0,0.0,90,0.00,,,0.00,Wunderground v.1.12,2013-08-25 06:51:00,
2013-08-25 02:56:00,52.2,49.4,30.22,ESE,106,0.0,0.0,90,0.00,,,0.00,Wunderground v.1.12,2013-08-25 06:56:00,
2013-08-25 03:03:00,52.2,49.7,30.22,ESE,106,0.0,0.0,91,0.00,,,0.00,Wunderground v.1.12,2013-08-25 07:03:00,
2013-08-25 03:08:00,52.2,49.7,30.22,ESE,106,0.0,0.0,91,0.00,,,0.00,Wunderground v.1.12,2013-08-25 07:08:00,
2013-08-25 03:13:00,52.2,49.7,30.22,ESE,106,0.0,0.0,91,0.00,,,0.00,Wunderground v.1.12,2013-08-25 07:13:00,
2013-08-25 03:19:00,51.9,49.4,30.22,ESE,106,0.0,0.0,91,0.00,,,0.00,Wunderground v.1.12,2013-08-25 07:19:00,
2013-08-25 03:25:00,51.3,48.8,30.22,ESE,106,0.0,0.0,91,0.00,,,0.00,Wunderground v.1.12,2013-08-25 07:25:00,
2013-08-25 03:30:00,51.0,48.5,30.22,ESE,106,0.0,0.0,91,0.00,,,0.00,Wunderground v.1.12,2013-08-25 07:30:00,
2013-08-25 03:36:00,51.0,48.8,30.23,ESE,106,0.0,0.0,92,0.00,,,0.00,Wunderground v.1.12,2013-08-25 07:36:00,
2013-08-25 03:43:00,51.0,49.0,30.23,ESE,106,0.0,0.0,93,0.00,,,0.00,Wunderground v.1.12,2013-08-25 07:43:00,
2013-08-25 03:48:00,51.1,49.1,30.22,ESE,106,0.0,0.0,93,0.00,,,0.00,Wunderground v.1.12,2013-08-25 07:48:00,
2013-08-25 03:54:00,51.3,49.3,30.22,ESE,106,0.0,0.0,93,0.00,,,0.00,Wunderground v.1.12,2013-08-25 07:54:00,
2013-08-25 03:59:00,51.4,49.7,30.22,ESE,106,0.0,0.0,94,0.00,,,0.00,Wunderground v.1.12,2013-08-25 07:59:00,
2013-08-25 04:05:00,51.4,49.4,30.22,ESE,106,0.0,0.0,93,0.00,,,0.00,Wunderground v.1.12,2013-08-25 08:05:00,
2013-08-25 04:11:00,51.4,49.4,30.22,ESE,106,0.0,0.0,93,0.00,,,0.00,Wunderground v.1.12,2013-08-25 08:11:00,
2013-08-25 04:18:00,51.6,49.9,30.23,ESE,106,0.0,0.0,94,0.00,,,0.00,Wunderground v.1.12,2013-08-25 08:18:00,
2013-08-25 04:23:00,51.4,49.7,30.23,ESE,106,0.0,0.0,94,0.00,,,0.00,Wunderground v.1.12,2013-08-25 08:23:00,
2013-08-25 04:29:00,51.3,49.3,30.23,ESE,106,0.0,0.0,93,0.00,,,0.00,Wunderground v.1.12,2013-08-25 08:29:00,
2013-08-25 04:35:00,50.7,48.7,30.24,ESE,106,0.0,0.0,93,0.00,,,0.00,Wunderground v.1.12,2013-08-25 08:35:00,
2013-08-25 04:41:00,50.5,48.8,30.24,ESE,106,0.0,0.0,94,0.00,,,0.00,Wunderground v.1.12,2013-08-25 08:41:00,
2013-08-25 04:48:00,50.8,49.1,30.24,ESE,106,0.0,0.0,94,0.00,,,0.00,Wunderground v.1.12,2013-08-25 08:48:00,
2013-08-25 04:53:00,51.0,49.3,30.24,ESE,106,0.0,0.0,94,0.00,,,0.00,Wunderground v.1.12,2013-08-25 08:53:00,
2013-08-25 04:58:00,50.8,49.1,30.24,ESE,106,0.0,0.0,94,0.00,,,0.00,Wunderground v.1.12,2013-08-25 08:58:00,
2013-08-25 05:04:00,50.8,49.1,30.24,ESE,106,0.0,0.0,94,0.00,,,0.00,Wunderground v.1.12,2013-08-25 09:04:00,
2013-08-25 05:10:00,50.8,49.1,30.24,ESE,106,0.0,0.0,94,0.00,,,0.00,Wunderground v.1.12,2013-08-25 09:10:00,
2013-08-25 05:15:00,50.8,49.1,30.24,ESE,106,0.0,0.0,94,0.00,,,0.00,Wunderground v.1.12,2013-08-25 09:15:00,
2013-08-25 05:21:00,50.7,49.0,30.25,ESE,106,0.0,0.0,94,0.00,,,0.00,Wunderground v.1.12,2013-08-25 09:21:00,
2013-08-25 05:28:00,50.2,48.5,30.25,ESE,106,0.0,0.0,94,0.00,,,0.00,Wunderground v.1.12,2013-08-25 09:28:00,
2013-08-25 05:33:00,50.2,48.5,30.25,ESE,106,0.0,0.0,94,0.00,,,0.00,Wunderground v.1.12,2013-08-25 09:33:00,
2013-08-25 05:39:00,50.4,48.7,30.25,ESE,106,0.0,0.0,94,0.00,,,0.00,Wunderground v.1.12,2013-08-25 09:39:00,
2013-08-25 05:45:00,50.2,48.8,30.25,ESE,106,0.0,0.0,95,0.00,,,0.00,Wunderground v.1.12,2013-08-25 09:45:00,
2013-08-25 05:50:00,50.4,49.0,30.26,ESE,106,0.0,0.0,95,0.00,,,0.00,Wunderground v.1.12,2013-08-25 09:50:00,
2013-08-25 05:56:00,50.4,49.0,30.26,ESE,106,0.0,0.0,95,0.00,,,0.00,Wunderground v.1.12,2013-08-25 09:56:00,
2013-08-25 06:03:00,50.2,48.8,30.27,ESE,106,0.0,0.0,95,0.00,,,0.00,Wunderground v.1.12,2013-08-25 10:03:00,
2013-08-25 06:08:00,50.1,48.7,30.27,ESE,106,0.0,0.0,95,0.00,,,0.00,Wunderground v.1.12,2013-08-25 10:08:00,
2013-08-25 06:14:00,49.8,48.4,30.27,ESE,106,0.0,0.0,95,0.00,,,0.00,Wunderground v.1.12,2013-08-25 10:14:00,
2013-08-25 06:20:00,49.6,48.2,30.27,ESE,106,0.0,0.0,95,0.00,,,0.00,Wunderground v.1.12,2013-08-25 10:20:00,
2013-08-25 06:26:00,49.6,48.2,30.27,ESE,106,0.0,0.0,95,0.00,,,0.00,Wunderground v.1.12,2013-08-25 10:26:00,
2013-08-25 06:31:00,49.5,48.1,30.27,ESE,106,0.0,0.0,95,0.00,,,0.00,Wunderground v.1.12,2013-08-25 10:31:00,
2013-08-25 06:38:00,50.2,48.8,30.27,N/A,-737280,0.0,0.0,95,0.00,,,0.00,Wunderground v.1.12,2013-08-25 10:38:00,
2013-08-25 06:43:00,49.8,48.4,30.27,ESE,106,0.0,0.0,95,0.00,,,0.00,Wunderground v.1.12,2013-08-25 10:43:00,
2013-08-25 06:48:00,49.8,48.4,30.28,ESE,106,0.0,0.0,95,0.00,,,0.00,Wunderground v.1.12,2013-08-25 10:48:00,
2013-08-25 06:53:00,49.9,48.5,30.28,ESE,106,0.0,0.0,95,0.00,,,0.00,Wunderground v.1.12,2013-08-25 10:53:00,
2013-08-25 06:59:00,50.2,49.1,30.28,ESE,106,0.0,0.0,96,0.00,,,0.00,Wunderground v.1.12,2013-08-25 10:59:00,
2013-08-25 07:05:00,50.4,49.3,30.28,ESE,106,0.0,0.0,96,0.00,,,0.00,Wunderground v.1.12,2013-08-25 11:05:00,
2013-08-25 07:10:00,50.8,49.7,30.28,ESE,106,0.0,0.0,96,0.00,,,0.00,Wunderground v.1.12,2013-08-25 11:10:00,
2013-08-25 07:16:00,51.1,50.0,30.28,ESE,106,0.0,0.0,96,0.00,,,0.00,Wunderground v.1.12,2013-08-25 11:16:00,
2013-08-25 07:23:00,51.7,50.6,30.28,ESE,106,0.0,0.0,96,0.00,,,0.00,Wunderground v.1.12,2013-08-25 11:23:00,
2013-08-25 07:28:00,52.2,50.8,30.28,ESE,106,0.0,0.0,95,0.00,,,0.00,Wunderground v.1.12,2013-08-25 11:28:00,
2013-08-25 07:34:00,52.9,51.5,30.29,ESE,106,0.0,0.0,95,0.00,,,0.00,Wunderground v.1.12,2013-08-25 11:34:00,
2013-08-25 07:40:00,53.5,51.8,30.29,ESE,106,0.0,0.0,94,0.00,,,0.00,Wunderground v.1.12,2013-08-25 11:40:00,
2013-08-25 07:46:00,53.9,51.9,30.29,ESE,106,0.0,0.0,93,0.00,,,0.00,Wunderground v.1.12,2013-08-25 11:46:00,
2013-08-25 07:53:00,54.5,52.2,30.28,ESE,106,0.0,0.0,92,0.00,,,0.00,Wunderground v.1.12,2013-08-25 11:53:00,
2013-08-25 07:58:00,55.6,53.0,30.28,ESE,106,0.0,0.0,91,0.00,,,0.00,Wunderground v.1.12,2013-08-25 11:58:00,
2013-08-25 08:04:00,56.5,53.3,30.29,ESE,106,0.0,0.0,89,0.00,,,0.00,Wunderground v.1.12,2013-08-25 12:04:00,
2013-08-25 08:10:00,57.2,53.4,30.29,ESE,106,0.0,0.0,87,0.00,,,0.00,Wunderground v.1.12,2013-08-25 12:10:00,
2013-08-25 08:16:00,58.1,53.9,30.29,SSW,195,0.0,0.0,86,0.00,,,0.00,Wunderground v.1.12,2013-08-25 12:16:00,
2013-08-25 08:23:00,59.2,54.0,30.29,SSW,195,0.0,0.0,83,0.00,,,0.00,Wunderground v.1.12,2013-08-25 12:23:00,
2013-08-25 08:28:00,59.8,54.3,30.29,SSW,195,0.0,0.0,82,0.00,,,0.00,Wunderground v.1.12,2013-08-25 12:28:00,
2013-08-25 08:33:00,60.5,54.3,30.28,SSW,196,0.0,0.0,80,0.00,,,0.00,Wunderground v.1.12,2013-08-25 12:33:00,
2013-08-25 08:39:00,61.3,55.1,30.28,SSW,200,0.0,0.0,80,0.00,,,0.00,Wunderground v.1.12,2013-08-25 12:39:00,
2013-08-25 08:45:00,62.1,54.8,30.28,SSW,202,0.0,0.0,77,0.00,,,0.00,Wunderground v.1.12,2013-08-25 12:45:00,
2013-08-25 08:51:00,63.1,55.4,30.28,SSW,202,0.0,0.0,76,0.00,,,0.00,Wunderground v.1.12,2013-08-25 12:51:00,
2013-08-25 08:58:00,64.2,55.4,30.28,SSW,204,0.0,0.0,73,0.00,,,0.00,Wunderground v.1.12,2013-08-25 12:58:00,
2013-08-25 09:03:00,65.2,56.3,30.27,SSW,204,0.0,0.0,73,0.00,,,0.00,Wunderground v.1.12,2013-08-25 13:03:00,
2013-08-25 09:08:00,65.8,55.7,30.27,SSW,205,0.0,0.0,70,0.00,,,0.00,Wunderground v.1.12,2013-08-25 13:08:00,
2013-08-25 09:14:00,66.9,55.6,30.27,SSW,205,0.0,0.0,67,0.00,,,0.00,Wunderground v.1.12,2013-08-25 13:14:00,
2013-08-25 09:20:00,68.1,56.3,30.27,SSW,205,0.0,0.0,66,0.00,,,0.00,Wunderground v.1.12,2013-08-25 13:20:00,
2013-08-25 09:26:00,68.6,57.2,30.27,SSW,205,0.0,0.0,67,0.00,,,0.00,Wunderground v.1.12,2013-08-25 13:26:00,
2013-08-25 09:33:00,69.1,56.4,30.28,SSW,205,0.0,0.0,64,0.00,,,0.00,Wunderground v.1.12,2013-08-25 13:33:00,
2013-08-25 09:38:00,70.1,57.8,30.28,SSW,205,0.0,0.0,65,0.00,,,0.00,Wunderground v.1.12,2013-08-25 13:38:00,
2013-08-25 09:44:00,71.1,56.0,30.28,SSW,205,0.0,0.0,59,0.00,,,0.00,Wunderground v.1.12,2013-08-25 13:44:00,
2013-08-25 09:50:00,72.3,56.2,30.28,SSW,205,0.0,0.0,57,0.00,,,0.00,Wunderground v.1.12,2013-08-25 13:50:00,
2013-08-25 09:55:00,73.2,54.0,30.28,SSW,205,0.0,0.0,51,0.00,,,0.00,Wunderground v.1.12,2013-08-25 13:55:00,
2013-08-25 10:01:00,74.2,54.4,30.28,ESE,104,0.0,0.0,50,0.00,,,0.00,Wunderground v.1.12,2013-08-25 14:01:00,
2013-08-25 10:06:00,74.9,53.9,30.28,East,97,0.0,0.0,48,0.00,,,0.00,Wunderground v.1.12,2013-08-25 14:06:00,
2013-08-25 10:13:00,75.3,53.7,30.28,East,98,0.0,0.0,47,0.00,,,0.00,Wunderground v.1.12,2013-08-25 14:13:00,
2013-08-25 10:18:00,76.0,54.9,30.27,East,81,0.0,0.0,48,0.00,,,0.00,Wunderground v.1.12,2013-08-25 14:18:00,
2013-08-25 10:24:00,75.4,52.0,30.27,ESE,103,0.0,0.0,44,0.00,,,0.00,Wunderground v.1.12,2013-08-25 14:24:00,
2013-08-25 10:30:00,75.1,52.3,30.27,SSE,156,0.0,0.0,45,0.00,,,0.00,Wunderground v.1.12,2013-08-25 14:30:00,
2013-08-25 10:36:00,74.7,51.9,30.27,ESE,103,0.0,0.0,45,0.00,,,0.00,Wunderground v.1.12,2013-08-25 14:36:00,
2013-08-25 10:41:00,74.9,53.3,30.27,ESE,104,0.0,0.0,47,0.00,,,0.00,Wunderground v.1.12,2013-08-25 14:41:00,
2013-08-25 10:48:00,75.1,51.7,30.27,ENE,76,0.0,0.0,44,0.00,,,0.00,Wunderground v.1.12,2013-08-25 14:48:00,
2013-08-25 10:53:00,75.4,52.0,30.27,ESE,105,0.0,0.0,44,0.00,,,0.00,Wunderground v.1.12,2013-08-25 14:53:00,
2013-08-25 10:58:00,75.4,52.0,30.27,ESE,103,0.0,0.0,44,0.00,,,0.00,Wunderground v.1.12,2013-08-25 14:58:00,
2013-08-25 11:03:00,75.8,52.3,30.27,East,80,0.0,0.0,44,0.00,,,0.00,Wunderground v.1.12,2013-08-25 15:03:00,
2013-08-25 11:09:00,76.1,52.0,30.27,East,92,0.0,0.0,43,0.00,,,0.00,Wunderground v.1.12,2013-08-25 15:09:00,
2013-08-25 11:15:00,76.1,51.3,30.27,East,93,0.0,0.0,42,0.00,,,0.00,Wunderground v.1.12,2013-08-25 15:15:00,
2013-08-25 11:21:00,76.3,52.2,30.26,ESE,103,0.0,0.0,43,0.00,,,0.00,Wunderground v.1.12,2013-08-25 15:21:00,
2013-08-25 11:26:00,76.5,52.3,30.26,SSW,200,0.0,0.0,43,0.00,,,0.00,Wunderground v.1.12,2013-08-25 15:26:00,
2013-08-25 11:33:00,76.3,50.9,30.25,SSW,192,0.0,0.0,41,0.00,,,0.00,Wunderground v.1.12,2013-08-25 15:33:00,
2013-08-25 11:38:00,77.0,52.1,30.25,South,190,0.0,0.0,42,0.00,,,0.00,Wunderground v.1.12,2013-08-25 15:38:00,
2013-08-25 11:43:00,77.6,53.3,30.25,ESE,103,0.0,0.0,43,0.00,,,0.00,Wunderground v.1.12,2013-08-25 15:43:00,
2013-08-25 11:49:00,77.7,51.5,30.25,SE,144,0.0,0.0,40,0.00,,,0.00,Wunderground v.1.12,2013-08-25 15:49:00,
2013-08-25 11:55:00,77.2,52.3,30.25,ESE,103,0.0,0.0,42,0.00,,,0.00,Wunderground v.1.12,2013-08-25 15:55:00,
2013-08-25 12:01:00,76.5,50.4,30.25,East,100,0.0,0.0,40,0.00,,,0.00,Wunderground v.1.12,2013-08-25 16:01:00,
2013-08-25 12:08:00,76.3,50.9,30.25,N/A,-737280,0.0,0.0,41,0.00,,,0.00,Wunderground v.1.12,2013-08-25 16:08:00,
2013-08-25 12:13:00,76.3,48.8,30.24,East,96,1.0,3.0,38,0.00,,,0.00,Wunderground v.1.12,2013-08-25 16:13:00,
2013-08-25 12:18:00,76.1,50.7,30.24,East,90,1.0,1.0,41,0.00,,,0.00,Wunderground v.1.12,2013-08-25 16:18:00,
2013-08-25 12:23:00,76.3,50.2,30.24,South,186,0.0,1.0,40,0.00,,,0.00,Wunderground v.1.12,2013-08-25 16:23:00,
2013-08-25 12:28:00,76.5,51.0,30.24,South,184,0.0,0.0,41,0.00,,,0.00,Wunderground v.1.12,2013-08-25 16:28:00,
2013-08-25 12:33:00,76.5,49.7,30.23,East,88,0.0,0.0,39,0.00,,,0.00,Wunderground v.1.12,2013-08-25 16:33:00,
2013-08-25 12:39:00,76.5,50.4,30.23,East,90,0.0,0.0,40,0.00,,,0.00,Wunderground v.1.12,2013-08-25 16:39:00,
2013-08-25 12:44:00,76.1,50.0,30.23,ESE,103,1.0,1.0,40,0.00,,,0.00,Wunderground v.1.12,2013-08-25 16:44:00,
2013-08-25 12:50:00,76.0,50.6,30.23,ENE,74,1.0,1.0,41,0.00,,,0.00,Wunderground v.1.12,2013-08-25 16:50:00,
2013-08-25 12:55:00,76.5,51.0,30.23,ESE,122,1.0,1.0,41,0.00,,,0.00,Wunderground v.1.12,2013-08-25 16:55:00,
2013-08-25 13:01:00,76.5,49.0,30.23,East,90,0.0,1.0,38,0.00,,,0.00,Wunderground v.1.12,2013-08-25 17:01:00,
2013-08-25 13:08:00,76.5,49.7,30.23,East,90,0.0,7.0,39,0.00,,,0.00,Wunderground v.1.12,2013-08-25 17:08:00,
2013-08-25 13:13:00,76.5,49.7,30.22,ESE,103,1.0,3.0,39,0.00,,,0.00,Wunderground v.1.12,2013-08-25 17:13:00,
2013-08-25 13:18:00,76.3,49.5,30.22,ESE,103,2.0,6.0,39,0.00,,,0.00,Wunderground v.1.12,2013-08-25 17:18:00,
2013-08-25 13:24:00,76.3,50.9,30.22,East,92,1.0,1.0,41,0.00,,,0.00,Wunderground v.1.12,2013-08-25 17:24:00,
2013-08-25 13:29:00,76.7,51.9,30.22,ESE,102,1.0,1.0,42,0.00,,,0.00,Wunderground v.1.12,2013-08-25 17:29:00,
2013-08-25 13:35:00,76.7,50.6,30.22,East,88,1.0,3.0,40,0.00,,,0.00,Wunderground v.1.12,2013-08-25 17:35:00,
2013-08-25 13:41:00,76.5,52.3,30.22,ESE,114,1.0,3.0,43,0.00,,,0.00,Wunderground v.1.12,2013-08-25 17:41:00,
2013-08-25 13:48:00,76.7,49.9,30.21,SE,132,1.0,1.0,39,0.00,,,0.00,Wunderground v.1.12,2013-08-25 17:48:00,
2013-08-25 13:53:00,76.1,50.7,30.21,ESE,105,2.0,5.0,41,0.00,,,0.00,Wunderground v.1.12,2013-08-25 17:53:00,
2013-08-25 13:59:00,76.3,51.5,30.21,NE,52,1.0,1.0,42,0.00,,,0.00,Wunderground v.1.12,2013-08-25 17:59:00,
2013-08-25 14:05:00,76.3,49.5,30.21,South,173,1.0,1.0,39,0.00,,,0.00,Wunderground v.1.12,2013-08-25 18:05:00,
2013-08-25 14:10:00,76.5,51.0,30.21,ENE,77,1.0,2.0,41,0.00,,,0.00,Wunderground v.1.12,2013-08-25 18:10:00,
2013-08-25 14:15:00,77.0,51.5,30.21,East,89,1.0,3.0,41,0.00,,,0.00,Wunderground v.1.12,2013-08-25 18:15:00,
2013-08-25 14:21:00,76.7,51.2,30.21,East,95,1.0,5.0,41,0.00,,,0.00,Wunderground v.1.12,2013-08-25 18:21:00,
2013-08-25 14:28:00,76.3,50.2,30.21,East,95,1.0,6.0,40,0.00,,,0.00,Wunderground v.1.12,2013-08-25 18:28:00,
2013-08-25 14:33:00,76.3,50.9,30.20,East,81,1.0,3.0,41,0.00,,,0.00,Wunderground v.1.12,2013-08-25 18:33:00,
2013-08-25 14:38:00,75.6,49.6,30.20,East,88,1.0,5.0,40,0.00,,,0.00,Wunderground v.1.12,2013-08-25 18:38:00,
2013-08-25 14:44:00,75.6,50.2,30.20,East,80,1.0,3.0,41,0.00,,,0.00,Wunderground v.1.12,2013-08-25 18:44:00,
2013-08-25 14:49:00,75.4,50.7,30.20,SE,144,1.0,1.0,42,0.00,,,0.00,Wunderground v.1.12,2013-08-25 18:49:00,
2013-08-25 14:55:00,75.3,51.3,30.20,ENE,57,2.0,7.0,43,0.00,,,0.00,Wunderground v.1.12,2013-08-25 18:55:00,
2013-08-25 15:01:00,75.3,51.3,30.20,East,91,2.0,2.0,43,0.00,,,0.00,Wunderground v.1.12,2013-08-25 19:01:00,
2013-08-25 15:06:00,75.4,52.0,30.19,East,98,1.0,2.0,44,0.00,,,0.00,Wunderground v.1.12,2013-08-25 19:06:00,
2013-08-25 15:13:00,75.8,52.3,30.19,East,90,1.0,5.0,44,0.00,,,0.00,Wunderground v.1.12,2013-08-25 19:13:00,
2013-08-25 15:18:00,76.0,52.5,30.19,East,82,2.0,3.0,44,0.00,,,0.00,Wunderground v.1.12,2013-08-25 19:18:00,
2013-08-25 15:23:00,76.1,52.6,30.19,East,100,1.0,3.0,44,0.00,,,0.00,Wunderground v.1.12,2013-08-25 19:23:00,
2013-08-25 15:29:00,76.1,52.6,30.19,ESE,115,1.0,3.0,44,0.00,,,0.00,Wunderground v.1.12,2013-08-25 19:29:00,
2013-08-25 15:35:00,75.6,52.1,30.18,ESE,103,1.0,1.0,44,0.00,,,0.00,Wunderground v.1.12,2013-08-25 19:35:00,
2013-08-25 15:41:00,75.6,51.5,30.18,East,88,1.0,4.0,43,0.00,,,0.00,Wunderground v.1.12,2013-08-25 19:41:00,
2013-08-25 15:46:00,75.4,52.0,30.18,East,85,1.0,1.0,44,0.00,,,0.00,Wunderground v.1.12,2013-08-25 19:46:00,
2013-08-25 15:53:00,75.3,52.5,30.18,ESE,116,1.0,2.0,45,0.00,,,0.00,Wunderground v.1.12,2013-08-25 19:53:00,
2013-08-25 15:58:00,75.6,52.1,30.18,ESE,108,1.0,4.0,44,0.00,,,0.00,Wunderground v.1.12,2013-08-25 19:58:00,
2013-08-25 16:03:00,75.4,53.8,30.17,East,93,1.0,1.0,47,0.00,,,0.00,Wunderground v.1.12,2013-08-25 20:03:00,
2013-08-25 16:09:00,75.8,53.5,30.17,ESE,114,1.0,1.0,46,0.00,,,0.00,Wunderground v.1.12,2013-08-25 20:09:00,
2013-08-25 16:15:00,76.1,53.8,30.17,East,84,1.0,1.0,46,0.00,,,0.00,Wunderground v.1.12,2013-08-25 20:15:00,
2013-08-25 16:21:00,76.7,55.0,30.16,ENE,76,0.0,4.0,47,0.00,,,0.00,Wunderground v.1.12,2013-08-25 20:21:00,
2013-08-25 16:26:00,76.1,54.4,30.16,East,96,1.0,3.0,47,0.00,,,0.00,Wunderground v.1.12,2013-08-25 20:26:00,
2013-08-25 16:33:00,75.6,53.9,30.16,SE,140,1.0,6.0,47,0.00,,,0.00,Wunderground v.1.12,2013-08-25 20:33:00,
2013-08-25 16:38:00,75.8,54.1,30.16,East,82,1.0,3.0,47,0.00,,,0.00,Wunderground v.1.12,2013-08-25 20:38:00,
2013-08-25 16:44:00,76.0,54.9,30.16,SE,125,1.0,1.0,48,0.00,,,0.00,Wunderground v.1.12,2013-08-25 20:44:00,
2013-08-25 16:49:00,76.0,55.5,30.16,SE,142,0.0,0.0,49,0.00,,,0.00,Wunderground v.1.12,2013-08-25 20:49:00,
2013-08-25 16:55:00,75.4,54.9,30.16,ESE,102,0.0,2.0,49,0.00,,,0.00,Wunderground v.1.12,2013-08-25 20:55:00,
2013-08-25 17:01:00,74.6,55.3,30.16,East,101,1.0,1.0,51,0.00,,,0.00,Wunderground v.1.12,2013-08-25 21:01:00,
2013-08-25 17:08:00,75.6,53.9,30.16,East,90,1.0,6.0,47,0.00,,,0.00,Wunderground v.1.12,2013-08-25 21:08:00,
2013-08-25 17:13:00,73.9,55.2,30.15,East,94,1.0,2.0,52,0.00,,,0.00,Wunderground v.1.12,2013-08-25 21:13:00,
2013-08-25 17:19:00,73.5,55.3,30.15,East,92,1.0,1.0,53,0.00,,,0.00,Wunderground v.1.12,2013-08-25 21:19:00,
2013-08-25 17:25:00,73.0,56.4,30.15,ESE,102,1.0,1.0,56,0.00,,,0.00,Wunderground v.1.12,2013-08-25 21:25:00,
2013-08-25 17:30:00,73.0,56.4,30.15,East,84,1.0,1.0,56,0.00,,,0.00,Wunderground v.1.12,2013-08-25 21:30:00,
2013-08-25 17:36:00,73.3,56.2,30.14,ESE,107,0.0,0.0,55,0.00,,,0.00,Wunderground v.1.12,2013-08-25 21:36:00,
2013-08-25 17:43:00,73.2,56.6,30.14,East,87,1.0,1.0,56,0.00,,,0.00,Wunderground v.1.12,2013-08-25 21:43:00,
2013-08-25 17:48:00,73.2,56.6,30.14,East,93,0.0,1.0,56,0.00,,,0.00,Wunderground v.1.12,2013-08-25 21:48:00,
2013-08-25 17:53:00,73.2,56.6,30.14,East,101,0.0,1.0,56,0.00,,,0.00,Wunderground v.1.12,2013-08-25 21:53:00,
2013-08-25 17:58:00,73.2,56.6,30.14,East,92,0.0,1.0,56,0.00,,,0.00,Wunderground v.1.12,2013-08-25 21:58:00,
2013-08-25 18:04:00,73.0,56.9,30.13,ENE,76,0.0,2.0,57,0.00,,,0.00,Wunderground v.1.12,2013-08-25 22:04:00,
2013-08-25 18:10:00,73.0,56.9,30.13,ENE,70,1.0,1.0,57,0.00,,,0.00,Wunderground v.1.12,2013-08-25 22:10:00,
2013-08-25 18:15:00,72.8,56.7,30.13,East,89,1.0,1.0,57,0.00,,,0.00,Wunderground v.1.12,2013-08-25 22:15:00,
2013-08-25 18:20:00,72.5,56.4,30.13,East,86,1.0,1.0,57,0.00,,,0.00,Wunderground v.1.12,2013-08-25 22:20:00,
2013-08-25 18:26:00,72.1,56.5,30.13,East,90,1.0,1.0,58,0.00,,,0.00,Wunderground v.1.12,2013-08-25 22:26:00,
2013-08-25 18:31:00,71.8,56.7,30.13,ESE,111,1.0,1.0,59,0.00,,,0.00,Wunderground v.1.12,2013-08-25 22:31:00,
2013-08-25 18:36:00,71.6,56.5,30.12,East,99,0.0,1.0,59,0.00,,,0.00,Wunderground v.1.12,2013-08-25 22:36:00,
2013-08-25 18:43:00,71.3,56.7,30.12,East,83,0.0,0.0,60,0.00,,,0.00,Wunderground v.1.12,2013-08-25 22:43:00,
2013-08-25 18:48:00,70.8,56.7,30.11,East,88,0.0,1.0,61,0.00,,,0.00,Wunderground v.1.12,2013-08-25 22:48:00,
2013-08-25 18:54:00,70.4,56.8,30.11,East,86,0.0,2.0,62,0.00,,,0.00,Wunderground v.1.12,2013-08-25 22:54:00,
2013-08-25 18:59:00,70.3,56.2,30.11,East,86,0.0,0.0,61,0.00,,,0.00,Wunderground v.1.12,2013-08-25 22:59:00,
2013-08-25 19:05:00,69.9,55.8,30.11,East,94,0.0,0.0,61,0.00,,,0.00,Wunderground v.1.12,2013-08-25 23:05:00,
2013-08-25 19:10:00,69.8,55.3,30.11,East,88,0.0,0.0,60,0.00,,,0.00,Wunderground v.1.12,2013-08-25 23:10:00,
2013-08-25 19:16:00,69.6,55.1,30.11,East,83,0.0,0.0,60,0.00,,,0.00,Wunderground v.1.12,2013-08-25 23:16:00,
2013-08-25 19:21:00,69.6,55.1,30.11,ENE,76,0.0,0.0,60,0.00,,,0.00,Wunderground v.1.12,2013-08-25 23:21:00,
2013-08-25 19:28:00,69.3,54.8,30.11,ENE,76,0.0,0.0,60,0.00,,,0.00,Wunderground v.1.12,2013-08-25 23:28:00,
2013-08-25 19:33:00,69.1,55.1,30.11,East,80,0.0,2.0,61,0.00,,,0.00,Wunderground v.1.12,2013-08-25 23:33:00,
2013-08-25 19:38:00,68.9,54.0,30.11,SE,143,0.0,0.0,59,0.00,,,0.00,Wunderground v.1.12,2013-08-25 23:38:00,
2013-08-25 19:44:00,68.8,54.3,30.11,ESE,107,0.0,0.0,60,0.00,,,0.00,Wunderground v.1.12,2013-08-25 23:44:00,
2013-08-25 19:50:00,68.6,54.2,30.11,ESE,116,0.0,0.0,60,0.00,,,0.00,Wunderground v.1.12,2013-08-25 23:50:00,
2013-08-25 19:56:00,68.4,54.0,30.11,ESE,106,0.0,0.0,60,0.00,,,0.00,Wunderground v.1.12,2013-08-25 23:56:00,
2013-08-25 20:01:00,68.3,54.8,30.11,ESE,113,0.0,0.0,62,0.00,,,0.00,Wunderground v.1.12,2013-08-26 00:01:00,
2013-08-25 20:08:00,69.1,54.6,30.11,East,90,0.0,4.0,60,0.00,,,0.00,Wunderground v.1.12,2013-08-26 00:08:00,
2013-08-25 20:13:00,67.8,54.3,30.11,SE,126,0.0,1.0,62,0.00,,,0.00,Wunderground v.1.12,2013-08-26 00:13:00,
2013-08-25 20:19:00,67.6,54.1,30.11,SE,126,0.0,0.0,62,0.00,,,0.00,Wunderground v.1.12,2013-08-26 00:19:00,
2013-08-25 20:25:00,67.4,54.4,30.11,SE,128,0.0,0.0,63,0.00,,,0.00,Wunderground v.1.12,2013-08-26 00:25:00,
2013-08-25 20:31:00,67.3,54.3,30.11,SE,128,0.0,0.0,63,0.00,,,0.00,Wunderground v.1.12,2013-08-26 00:31:00,
2013-08-25 20:38:00,68.3,54.3,30.10,ESE,113,0.0,3.0,61,0.00,,,0.00,Wunderground v.1.12,2013-08-26 00:38:00,
2013-08-25 20:43:00,66.6,54.5,30.11,SE,128,0.0,0.0,65,0.00,,,0.00,Wunderground v.1.12,2013-08-26 00:43:00,
2013-08-25 20:48:00,66.4,53.8,30.11,SE,128,0.0,0.0,64,0.00,,,0.00,Wunderground v.1.12,2013-08-26 00:48:00,
2013-08-25 20:54:00,66.1,54.0,30.11,SE,128,0.0,0.0,65,0.00,,,0.00,Wunderground v.1.12,2013-08-26 00:54:00,
2013-08-25 21:00:00,65.8,54.5,30.11,SE,128,0.0,0.0,67,0.00,,,0.00,Wunderground v.1.12,2013-08-26 01:00:00,
2013-08-25 21:06:00,65.6,54.8,30.11,SE,128,0.0,0.0,68,0.00,,,0.00,Wunderground v.1.12,2013-08-26 01:06:00,
2013-08-25 21:13:00,65.3,54.5,30.11,SE,128,0.0,0.0,68,0.00,,,0.00,Wunderground v.1.12,2013-08-26 01:13:00,
2013-08-25 21:18:00,65.2,54.0,30.10,SE,128,0.0,0.0,67,0.00,,,0.00,Wunderground v.1.12,2013-08-26 01:18:00,
2013-08-25 21:23:00,65.0,54.2,30.10,SE,128,0.0,0.0,68,0.00,,,0.00,Wunderground v.1.12,2013-08-26 01:23:00,
2013-08-25 21:28:00,65.0,53.8,30.10,SE,128,0.0,0.0,67,0.00,,,0.00,Wunderground v.1.12,2013-08-26 01:28:00,
2013-08-25 21:34:00,64.7,53.5,30.10,SE,128,0.0,0.0,67,0.00,,,0.00,Wunderground v.1.12,2013-08-26 01:34:00,
2013-08-25 21:40:00,64.5,53.7,30.10,SE,128,0.0,0.0,68,0.00,,,0.00,Wunderground v.1.12,2013-08-26 01:40:00,
2013-08-25 21:45:00,64.2,53.4,30.10,SE,128,0.0,0.0,68,0.00,,,0.00,Wunderground v.1.12,2013-08-26 01:45:00,
2013-08-25 21:51:00,63.9,53.5,30.10,SE,128,0.0,0.0,69,0.00,,,0.00,Wunderground v.1.12,2013-08-26 01:51:00,
2013-08-25 21:58:00,63.5,53.5,30.10,SE,128,0.0,0.0,70,0.00,,,0.00,Wunderground v.1.12,2013-08-26 01:58:00,
2013-08-25 22:03:00,63.1,53.2,30.10,SE,128,0.0,0.0,70,0.00,,,0.00,Wunderground v.1.12,2013-08-26 02:03:00,
2013-08-25 22:08:00,62.9,53.7,30.10,SE,128,0.0,0.0,72,0.00,,,0.00,Wunderground v.1.12,2013-08-26 02:08:00,
2013-08-25 22:14:00,62.7,53.5,30.10,SE,128,0.0,0.0,72,0.00,,,0.00,Wunderground v.1.12,2013-08-26 02:14:00,
2013-08-25 22:20:00,62.6,53.8,30.09,SE,128,0.0,0.0,73,0.00,,,0.00,Wunderground v.1.12,2013-08-26 02:20:00,
2013-08-25 22:26:00,62.4,53.6,30.09,SE,128,0.0,0.0,73,0.00,,,0.00,Wunderground v.1.12,2013-08-26 02:26:00,
2013-08-25 22:31:00,62.3,53.9,30.09,SE,128,0.0,0.0,74,0.00,,,0.00,Wunderground v.1.12,2013-08-26 02:31:00,
2013-08-25 22:38:00,63.2,53.3,30.10,N/A,-737280,0.0,0.0,70,0.00,,,0.00,Wunderground v.1.12,2013-08-26 02:38:00,
2013-08-25 22:43:00,62.1,54.4,30.10,SE,128,0.0,0.0,76,0.00,,,0.00,Wunderground v.1.12,2013-08-26 02:43:00,
2013-08-25 22:49:00,62.0,54.0,30.10,SE,128,0.0,0.0,75,0.00,,,0.00,Wunderground v.1.12,2013-08-26 02:49:00,
2013-08-25 22:55:00,62.1,54.4,30.10,SE,128,0.0,0.0,76,0.00,,,0.00,Wunderground v.1.12,2013-08-26 02:55:00,
2013-08-25 23:01:00,62.1,54.1,30.10,SE,128,0.0,0.0,75,0.00,,,0.00,Wunderground v.1.12,2013-08-26 03:01:00,
2013-08-25 23:08:00,62.3,53.9,30.10,N/A,-737280,0.0,0.0,74,0.00,,,0.00,Wunderground v.1.12,2013-08-26 03:08:00,
2013-08-25 23:13:00,62.7,53.9,30.10,SE,128,0.0,0.0,73,0.00,,,0.00,Wunderground v.1.12,2013-08-26 03:13:00,
2013-08-25 23:19:00,63.4,54.2,30.09,SSW,208,0.0,0.0,72,0.00,,,0.00,Wunderground v.1.12,2013-08-26 03:19:00,
2013-08-25 23:24:00,63.9,54.3,30.09,SSW,208,0.0,0.0,71,0.00,,,0.00,Wunderground v.1.12,2013-08-26 03:24:00,
2013-08-25 23:29:00,64.0,54.4,30.09,SSW,208,0.0,0.0,71,0.00,,,0.00,Wunderground v.1.12,2013-08-26 03:29:00,
2013-08-25 23:35:00,64.2,54.2,30.09,SSW,208,0.0,0.0,70,0.00,,,0.00,Wunderground v.1.12,2013-08-26 03:35:00,
2013-08-25 23:41:00,64.5,54.5,30.09,SSW,208,0.0,1.0,70,0.00,,,0.00,Wunderground v.1.12,2013-08-26 03:41:00,
2013-08-25 23:48:00,65.0,54.6,30.08,SSW,209,0.0,0.0,69,0.00,,,0.00,Wunderground v.1.12,2013-08-26 03:48:00,
2013-08-25 23:53:00,65.3,54.9,30.08,SSW,210,0.0,0.0,69,0.00,,,0.00,Wunderground v.1.12,2013-08-26 03:53:00,
2013-08-25 23:59:00,65.5,54.7,30.08,SW,235,0.0,2.0,68,0.00,,,0.00,Wunderground v.1.12,2013-08-26 03:59:00,